Change the Weather History Date:

Friday, July 19, 2013

  Actual Average Record
Temperature  
Mean Temperature 78 °F -  
Max Temperature 86 °F 87 °F 96 °F (2007)
Min Temperature 68 °F 64 °F 60 °F (2000)
Cooling Degree Days 12    
Growing Degree Days 28 (Base 50)    
Moisture  
Dew Point 69 °F    
Average Humidity 80    
Maximum Humidity 100    
Minimum Humidity 51    
Precipitation  
Precipitation 0.00 in 0.04 in - ()
Sea Level Pressure  
Sea Level Pressure 30.03 in    
Wind  
Wind Speed 3 mph ()    
Max Wind Speed 10 mph    
Max Gust Speed -    
Visibility 6.2 miles    
Events Rain , Thunderstorm    
Averages and records for this station are not official NWS values.
T = Trace of Precipitation, MM = Missing Value Source: Averaged Metar Reports

Daily Weather History Graph

Daily Weather History Graph

Search for Another Location

Airport or City:

Trip Planner

Search our weather history database for the weather conditions in past years. The results will help you decide how hot, cold, wet, or windy it might be!

Date:

Astronomy

Jul. 19, 2013 Rise Set
Actual Time 5:51 AM CEST 8:40 PM CEST
Civil Twilight 5:18 AM CEST 9:12 PM CEST
Nautical Twilight 4:37 AM CEST 9:54 PM CEST
Astronomical Twilight 3:49 AM CEST 10:41 PM CEST
Moon 5:24 PM CEST (7/19) 2:17 AM CEST (7/19)
Length of Visible Light 15h 54m
Length of Day
14h 48m
Waxing Gibbous, 84% of the Moon is Illuminated
Jul 19
Waxing Gibbous
Jul 22
Full
Jul 29
Last Quarter
Aug 6
New
Aug 14
First Quarter

Hourly Weather History & Observations

Time (CEST) Temp. Heat Index Dew Point Humidity Pressure Visibility Wind Dir Wind Speed Gust Speed Precip Events Conditions
12:15 AM 75.2 °F - 73.4 °F 94% 30.06 in - SSW 2.3 mph - N/A   Clear
12:45 AM 75.2 °F - 73.4 °F 94% 30.06 in 6.2 mi SSW 1.2 mph - N/A   Partly Cloudy
1:15 AM 75.2 °F - 73.4 °F 94% 30.06 in 6.2 mi WSW 1.2 mph - N/A   Partly Cloudy
1:45 AM 75.2 °F - 73.4 °F 94% 30.06 in 6.2 mi SSE 1.2 mph - N/A   Partly Cloudy
2:15 AM 75.2 °F - 73.4 °F 94% 30.06 in 6.2 mi ESE 1.2 mph - N/A   Partly Cloudy
2:45 AM 73.4 °F - 71.6 °F 94% 30.04 in 6.2 mi East 4.6 mph - N/A   Partly Cloudy
3:15 AM 71.6 °F - 71.6 °F 100% 30.04 in 6.2 mi ENE 4.6 mph - N/A   Scattered Clouds
3:45 AM 71.6 °F - 69.8 °F 94% 30.04 in 6.2 mi NE 1.2 mph - N/A   Scattered Clouds
4:15 AM 71.6 °F - 69.8 °F 94% 30.04 in - Calm Calm - N/A   Clear
4:45 AM 71.6 °F - 69.8 °F 94% 30.04 in 6.2 mi Calm Calm - N/A   Partly Cloudy
5:15 AM 71.6 °F - 69.8 °F 94% 30.04 in 6.2 mi NW 2.3 mph - N/A   Partly Cloudy
5:45 AM 71.6 °F - 68.0 °F 88% 30.01 in 6.2 mi Calm Calm - N/A   Partly Cloudy
6:15 AM 71.6 °F - 68.0 °F 88% 30.01 in 6.2 mi East 2.3 mph - N/A   Scattered Clouds
6:45 AM 71.6 °F - 68.0 °F 88% 30.01 in 6.2 mi East 2.3 mph - N/A   Partly Cloudy
7:15 AM 73.4 °F - 69.8 °F 88% 30.01 in 6.2 mi ENE 1.2 mph - N/A   Partly Cloudy
7:45 AM 73.4 °F - 69.8 °F 88% 30.04 in 6.2 mi Calm Calm - N/A   Partly Cloudy
8:15 AM 75.2 °F - 69.8 °F 83% 30.04 in 6.2 mi NNW 1.2 mph - N/A   Scattered Clouds
8:45 AM 77.0 °F - 69.8 °F 78% 30.04 in 6.2 mi NNE 2.3 mph - N/A   Scattered Clouds
9:15 AM 78.8 °F - 68.0 °F 69% 30.04 in 6.2 mi NNW 2.3 mph - N/A   Scattered Clouds
9:45 AM 80.6 °F 83.2 °F 68.0 °F 65% 30.04 in 6.2 mi North 2.3 mph - N/A   Scattered Clouds
10:15 AM 80.6 °F 82.7 °F 66.2 °F 61% 30.04 in 6.2 mi West 4.6 mph - N/A   Scattered Clouds
10:45 AM 82.4 °F 84.6 °F 66.2 °F 58% 30.04 in 6.2 mi SSW 4.6 mph - N/A   Scattered Clouds
11:15 AM 82.4 °F 84.6 °F 66.2 °F 58% 30.04 in 6.2 mi West 5.8 mph - N/A   Scattered Clouds
11:45 AM 86.0 °F 88.2 °F 66.2 °F 51% 30.04 in 6.2 mi West 4.6 mph - N/A   Scattered Clouds
12:15 PM 86.0 °F 89.4 °F 68.0 °F 55% 30.01 in 6.2 mi SSW 6.9 mph - N/A   Scattered Clouds
12:45 PM 84.2 °F 87.3 °F 68.0 °F 58% 30.01 in 6.2 mi SSW 8.1 mph - N/A Thunderstorm Thunderstorm
1:15 PM 82.4 °F 84.6 °F 66.2 °F 58% 30.01 in 6.2 mi WSW 10.4 mph - N/A Thunderstorm Thunderstorm
1:45 PM 78.8 °F - 62.6 °F 57% 30.04 in 6.2 mi NW 6.9 mph - N/A Thunderstorm Thunderstorm
2:15 PM 75.2 °F - 66.2 °F 73% 30.04 in 6.2 mi North 6.9 mph - N/A Rain , Thunderstorm Light Thunderstorms and Rain
2:45 PM 73.4 °F - 66.2 °F 78% 30.04 in 6.2 mi North 5.8 mph - N/A Rain , Thunderstorm Light Thunderstorms and Rain
3:15 PM 73.4 °F - 68.0 °F 83% 30.01 in 6.2 mi East 5.8 mph - N/A Rain , Thunderstorm Light Thunderstorms and Rain
3:45 PM 73.4 °F - 69.8 °F 88% 30.04 in 6.2 mi ENE 8.1 mph - N/A Rain Light Rain
4:15 PM 77.0 °F - 68.0 °F 74% 30.04 in 6.2 mi NE 4.6 mph - N/A   Scattered Clouds
4:45 PM 77.0 °F - 68.0 °F 74% 30.04 in 6.2 mi NNE 5.8 mph - N/A   Scattered Clouds
5:15 PM 77.0 °F - 66.2 °F 69% 30.01 in 6.2 mi ENE 9.2 mph - N/A   Scattered Clouds
5:45 PM 78.8 °F - 66.2 °F 65% 30.01 in 6.2 mi NE 10.4 mph - N/A   Scattered Clouds
6:15 PM 77.0 °F - 64.4 °F 65% 30.01 in 6.2 mi NE 9.2 mph - N/A   Scattered Clouds
6:45 PM 77.0 °F - 64.4 °F 65% 30.01 in 6.2 mi ENE 10.4 mph - N/A   Scattered Clouds
7:15 PM 75.2 °F - 64.4 °F 69% 30.01 in 6.2 mi NNE 5.8 mph - N/A   Scattered Clouds
7:45 PM 73.4 °F - 68.0 °F 83% 30.01 in 6.2 mi North 8.1 mph - N/A   Scattered Clouds
8:15 PM 73.4 °F - 68.0 °F 83% 30.01 in 6.2 mi ENE 4.6 mph - N/A   Scattered Clouds
8:45 PM 73.4 °F - 68.0 °F 83% 29.98 in 6.2 mi ENE 4.6 mph - N/A   Scattered Clouds
9:15 PM 73.4 °F - 69.8 °F 88% 29.98 in 6.2 mi ENE 3.5 mph - N/A   Scattered Clouds
9:45 PM 71.6 °F - 69.8 °F 94% 30.01 in 6.2 mi NNE 3.5 mph - N/A   Partly Cloudy
10:15 PM 71.6 °F - 69.8 °F 94% 30.01 in 6.2 mi NE 4.6 mph - N/A   Partly Cloudy
10:45 PM 71.6 °F - 69.8 °F 94% 30.01 in - NNE 4.6 mph - N/A   Clear
11:15 PM 69.8 °F - 69.8 °F 100% 30.01 in - North 2.3 mph - N/A   Clear
11:45 PM 68.0 °F - 68.0 °F 100% 30.01 in - NNE 3.5 mph - N/A   Clear